Showing default

APSTAR 5 (TELSTAR 18), 28364

Orbit data source: Space-Track

APSTAR 5 (TELSTAR 18), 28364 is a payload satellite owned by SS/Loral (CN) in GEO that was launched on Tue, 29 Jun 2004 UTC via a ZENIT-3SL launch vehicle from the Sea Launch (SEAL). Payloads include a variety of satellites, spacecraft, and rockets equipped with specific instruments for various scientific and technological missions. These include communications satellites like Starlink; space stations such as the ISS; scientific satellites like the Hubble; Earth observation satellites from companies like Planet Labs, Umbra, and HawkEye 360; GPS; miniature CubeSats for education and research; and military/defense satellites.

Not visible in the next 10 days
APSTAR 5 (TELSTAR 18) details
Identifier
28364, 2004-024A
Orbit
GEO
Last TLE update1 day ago
Origin
Flag of CNSS/Loral (CN / PRC)
ManufacturerSS/Loral
MissionNon-operational Commercial Communications
Bus & MotorSSL-1300, R-4D-11-164
Mass4,845 kg wet, ~2,000 kg dry
Launch date (UTC)
2004-06-29 (20 years ago)
Launch vehicle
ZENIT-3SL
Launch site
Sea Launch (SEAL)
Object type
Payload
Rocket body
Debris
Shape & HBRBox + 2 Pan, 31 m
Radar Cross Section40.765 m², Large (>1 m²)

Expand to show TLE details & history

TLE from 1 day ago
0 APSTAR 5 (TELSTAR 18)
1 28364U 04024A   24347.75188785 -.00000047  00000-0  00000-0 0  9994
2 28364   5.5637  76.2481 0003227 232.7567 140.6419  0.99011400 74847
Epoch: 2024-12-12T18:02Z
Definitive object data (Epoch: 2024-12-12T18:02:43.11Z)
Latitude1.31446°
Longitude96.99404°
Altitude36,153.653 km
Speed3.061 km/s
True Right ascension05h 58m 24s
True Declination1° 18' 47"
Sunlit
Object was in daylight at TLE epoch
Visualization TLE readout
Latitude5.55136°
Longitude168.1436°
Altitude36,154.378 km
Speed3.061 km/s
Apparent Right ascension10h 36m 10s
Apparent Declination0° 02' 53"
Sunlit
Object is in daylight
Visualization observer readout
Local Sidereal Time21:36:30
Azimuth337.476° NNW
Elevation-47.783°
Doppler factor1
Orbital elements
Apogee altitude36,158.439 km
Perigee altitude36,130.995 km
Semi-major axis42,522.854 km
Eccentricity0.0003227
Inclination5.5637°
RAAN76.2481°
Arg. of periapsis232.7567°
True anomaly140.66534°
Mean anomaly140.6419°
Eccentric anomaly140.65362°
Mean motion0.24752 °/min
BSTARUnknown
Orbital period1454.43 mins
Loading historical data...
28364 neighbors
Authenticating...
Loading maneuver chart data...
Loading historical data...
Loading historical data...
Loading historical data...
Loading historical data...
Loading historical data...
Loading historical data...
Loading historical data...
Other satellites on launch #24 in the year 2004 (2004-06-29 UTC)

APSTAR 5 (TELSTAR 18) Visibility forecast

Observer location: undefined°, undefined

APSTAR 5 (TELSTAR 18) is not visible in the next 10 days
Span
Click to sort rows by Start time (UTC) header in descending order
Start Az.
Max El. time (UTC)
Max El. Az.
Max El.
End time (UTC)
End Az.
|